Simultaneous Nadir Overpasses (SNOs) Predictions

Prediction of SNOs between AQUA and GOES-15 Satellite Orbit:

Table of predicted SNOs for the next 14.0 days since TLE Epoch: 8/18/2018
Index Date Time (AQUA) AQUA Lat,Lon GOES-15 Lat,Lon Distance(km) Time Diff (sec)
1 08/18/2018 10:51:05 0.40,-138.77 -0.36,-135.04 423.96 80
2 08/19/2018 22:17:37 1.30,-130.65 0.35,-135.01 496.42 80
3 08/20/2018 10:38:51 -0.17,-135.80 -0.36,-134.97 95.17 80
4 08/22/2018 10:26:38 -0.80,-132.84 -0.37,-134.89 233.09 80
5 08/22/2018 22:48:01 -0.32,-138.03 0.38,-134.89 357.05 80
6 08/24/2018 22:35:48 0.32,-135.07 0.38,-134.81 29.26 80
7 08/26/2018 22:23:35 0.96,-132.11 0.38,-134.72 298.11 80
8 08/27/2018 10:44:50 0.17,-137.26 -0.39,-134.68 293.06 80
9 08/29/2018 10:32:37 -0.47,-134.30 -0.39,-134.59 33.82 80
10 08/31/2018 10:20:23 -1.06,-131.33 -0.39,-134.49 359.89 80
11 08/31/2018 22:41:46 -0.05,-136.51 0.40,-134.48 231.41 80




NCC Satellite Simultaneous Nadir Overpasses (SNOs) Prediction Service
